#timestamp,LO_Frequency,Hit,StdDev 
1703876415.2,286047006.8,N
1703876435.0,286047008.2,N
1703876435.9,286047008.2,N
1703876455.7,286047012.2,N
1703876475.6,286047014.0,Y
1703876495.4,286047006.2,P
1703876515.3,286047006.1,P
1703876535.1,286047006.1,P
1703876555.9,286047003.8,Y
1703876575.7,286047000.7,P
1703876595.5,286047002.0,N
1703876615.4,286047001.0,N
1703876635.2,286047003.1,N
1703876655.0,286047003.7,N
1703876655.9,286047003.7,N
1703876675.8,286047004.1,N
1703876695.6,286047005.3,Y
1703876715.5,286046996.9,P
1703876735.3,286046996.2,N
1703876755.1,286046990.2,P
1703876775.9,286046988.9,N
1703876795.7,286046989.3,N
1703876815.6,286046994.2,N
1703876835.4,286046991.6,N
1703876855.2,286046987.7,N
1703876875.1,286046985.4,Y
1703876876.0,286046985.4,P
1703876895.8,286046991.8,N
1703876915.7,286046995.9,N
1703876935.5,286047001.3,N
1703876955.3,286047000.7,N
1703876975.2,286047002.7,N
1703876995.0,286047001.6,N
1703876995.9,286047001.6,N
1703877015.7,286047001.6,N
1703877035.6,286047003.2,N
1703877055.4,286047003.8,N
1703877075.3,286047001.7,N
1703877095.1,286047002.3,N
1703877096.0,286047002.3,N
1703877115.8,286046998.3,N
1703877135.7,286046999.3,N
1703877155.5,286046998.3,N
1703877175.3,286046995.8,N
1703877195.2,286046999.1,N
1703877215.0,286046997.1,N
1703877215.9,286046997.1,N
1703877235.8,286047002.5,N
1703877255.6,286047004.1,N
1703877275.4,286047004.1,N
1703877295.3,286047006.5,N
1703877315.1,286047013.4,N
1703877335.8,286047011.4,N
1703877355.7,286047009.0,N
1703877375.5,286047008.7,N
1703877395.4,286047008.2,N
1703877415.2,286047013.8,N
1703877435.0,286047008.0,N
1703877435.9,286047008.0,N
1703877455.8,286047003.0,N
1703877475.6,286047003.8,N
1703877495.4,286047000.0,N
1703877515.3,286046998.9,N
1703877535.1,286046998.8,N
1703877555.9,286047000.1,N
1703877575.7,286047003.5,N
1703877595.5,286047005.2,N
1703877615.4,286047005.2,N
1703877635.2,286047001.6,N
1703877655.0,286046999.8,N
1703877655.9,286046999.8,N
1703877675.8,286047000.9,N
1703877695.6,286046997.4,N
1703877715.5,286046996.3,N
1703877735.3,286046992.0,N
1703877755.1,286046992.1,N
1703877775.9,286046995.1,N
1703877795.7,286046995.1,N
1703877815.5,286046999.2,N
1703877835.4,286046996.0,N
1703877855.2,286046997.1,N
1703877875.1,286046998.8,N
1703877876.0,286046998.8,N
1703877895.8,286046995.1,N
1703877915.6,286047001.1,N
1703877935.5,286047006.0,N
1703877955.3,286047001.4,N
1703877975.1,286047003.0,N
1703877995.9,286047006.4,N
1703878015.7,286047007.2,N
1703878035.6,286047010.1,N
1703878055.4,286047010.4,N
1703878075.2,286047010.5,N
1703878095.1,286047009.1,N
1703878096.0,286047009.1,N
1703878115.8,286047007.3,N
1703878135.7,286047009.2,N
1703878155.5,286047008.8,N
1703878175.4,286047005.2,N
1703878195.2,286047006.4,N
1703878215.0,286047007.1,N
1703878215.9,286047011.9,N
1703878235.8,286047006.0,N
1703878255.6,286047004.9,N
1703878275.4,286047004.3,N
1703878295.3,286047005.3,N
1703878315.1,286047001.0,N
1703878335.9,286046996.9,N
1703878355.7,286046996.0,N
1703878375.5,286046990.2,N
1703878395.4,286046992.0,N
1703878415.2,286046994.7,N
1703878435.1,286046992.1,N
1703878436.0,286046992.1,N
1703878455.8,286046994.8,N
1703878475.6,286046991.0,N
1703878495.5,286046990.0,N
1703878515.3,286046993.2,N
1703878535.1,286046994.5,N
1703878555.9,286046995.4,N
1703878575.7,286046996.3,N
1703878595.6,286046996.4,N
1703878615.4,286046993.8,N
1703878635.2,286046995.7,N
1703878655.1,286046994.8,N
1703878656.0,286046994.8,N
1703878675.8,286046992.3,N
1703878695.7,286046988.8,N
1703878715.5,286046985.4,N
1703878735.3,286046987.1,N
1703878755.2,286046989.9,N
1703878775.0,286046989.5,N
1703878775.9,286046989.5,N
1703878795.7,286046988.8,N
1703878815.6,286046993.5,N
1703878835.4,286046995.8,N
1703878855.3,286046992.4,N
1703878875.1,286046990.9,Y
1703878876.0,286046990.9,P
1703878895.8,286046996.5,P
1703878915.7,286046995.5,N
1703878935.5,286046996.7,N
1703878955.4,286046999.9,N
1703878975.2,286047000.4,N
1703878995.0,286047002.8,N
1703878995.9,286047002.8,N
1703879015.8,286046998.8,N
1703879035.6,286046997.1,N
1703879055.4,286046996.7,N
1703879075.3,286046995.8,N
1703879095.1,286046997.1,N
1703879115.9,286046999.8,N
1703879135.7,286047002.3,N
1703879155.5,286047010.3,Y
1703879175.4,286047012.4,P
1703879195.2,286047010.4,N
1703879215.0,286047004.1,N
1703879215.9,286047004.1,N
1703879235.8,286047001.8,N
1703879255.6,286047002.1,N
1703879275.5,286047004.6,N
1703879295.3,286047009.6,N
1703879315.1,286047011.9,N
1703879335.9,286047010.4,N
1703879355.7,286047008.7,N
1703879375.5,286047007.8,N
1703879395.4,286047005.3,N
1703879415.2,286047002.8,N
1703879435.1,286047002.8,N
1703879436.0,286047002.8,N
1703879455.8,286047002.8,N
1703879475.6,286047004.4,N
1703879495.5,286047005.1,N
1703879515.3,286047003.9,N
1703879535.1,286047003.9,N
1703879555.9,286047001.8,N
1703879575.7,286047002.8,N
1703879595.6,286047005.5,N
1703879615.4,286047005.2,N
1703879635.2,286047003.2,N
1703879655.1,286047005.7,N
1703879656.0,286047005.7,N
1703879675.8,286047007.2,N
1703879695.7,286047004.8,N
1703879715.5,286047001.9,N
1703879735.3,286046998.3,N
1703879755.2,286046996.5,N
1703879775.0,286047001.5,N
1703879775.9,286047001.5,N
1703879795.7,286047003.2,N
1703879815.6,286047004.4,N
1703879835.4,286047001.9,N
1703879855.3,286046999.7,N
1703879875.1,286046999.8,N
1703879876.0,286046999.8,N
1703879895.8,286047002.8,N
1703879915.7,286047002.9,N
1703879935.5,286047007.3,Y
1703879955.3,286047004.0,P
1703879975.2,286047001.6,N
1703879995.0,286047000.1,N
1703879995.9,286047000.1,N
